Location: Leverkusen
(51.0459°N, 7.0192°E)
Time: 23:29:45
(UTC+01:00)

ISS - Visible Passes

Search period start: 28 November 2023 00:00
Search period end: 08 December 2023 00:00
Orbit: 416 x 418 km, 51.6° (Epoch: 28 November)

Date Brightness Start Highest point End Pass type
(mag) Time Alt. Az. Time Alt. Az. Time Alt. Az.
28 Nov -3.8 17:28:02 10° W 17:31:25 78° N 17:34:22 13° E visible
28 Nov -2.6 19:04:51 10° W 19:07:17 43° W 19:07:17 43° W visible
29 Nov -3.8 18:16:32 10° W 18:19:55 83° SSW 18:21:00 40° ESE visible
29 Nov -0.4 19:53:30 10° W 19:53:55 13° W 19:53:55 13° W visible
30 Nov -3.8 17:28:11 10° W 17:31:34 85° N 17:34:46 11° E visible
30 Nov -2.3 19:05:01 10° W 19:07:41 36° SW 19:07:41 36° SW visible
01 Dec -3.1 18:16:35 10° W 18:19:52 52° SSW 18:21:31 25° SE visible
01 Dec -0.3 19:54:16 10° WSW 19:54:27 11° WSW 19:54:27 11° WSW visible
02 Dec -3.5 17:28:07 10° WNW 17:31:29 69° SSW 17:34:49 10° ESE visible
02 Dec -1.5 19:05:17 10° W 19:07:50 20° SW 19:08:23 19° SSW visible
03 Dec -1.9 18:16:34 10° W 18:19:31 28° SSW 18:22:26 10° SSE visible
04 Dec -2.4 17:27:55 10° W 17:31:06 40° SSW 17:34:16 10° SE visible
05 Dec -0.7 18:16:53 10° WSW 18:18:49 15° SW 18:20:44 10° S visible
06 Dec -1.0 17:27:47 10° W 17:30:24 21° SW 17:33:01 10° SSE visible
